C4984 Weather Reports


Display with metric or nautical units.
time (UTC)temp
F
wind
direction
speed
MPH
gust
MPH
rain 1hr
in
rain 24hr
in
rain mn
in
humidity
%
barometer
mb
20260901031809 78 356 0.0 0.0 0.00 0.00 0.00 82 1013.2
20260901025622 78 356 0.0 0.0 0.00 0.00 0.00 80 1013.4
20260901024604 78 356 0.0 0.0 0.00 0.00 0.00 79 1013.4
20260901023614 78 356 0.0 0.0 0.00 0.00 0.00 80 1013.2
20260901022618 78 356 0.0 0.0 0.00 0.00 0.00 81 1013.2
20260901021641 78 356 0.0 1.0 0.00 0.00 0.00 78 1013.2
20260901020616 78 356 0.0 0.0 0.00 0.00 0.00 82 1013.3
20260901015633 78 356 0.0 0.0 0.00 0.00 0.00 78 1013.3
20260901014636 79 356 0.0 0.0 0.00 0.00 0.00 79 1013.3
20260901013701 79 356 0.0 0.0 0.00 0.00 0.00 79 1013.3
20260901012631 79 356 0.0 0.0 0.00 0.00 0.00 78 1013.0
20260901010429 79 356 0.0 0.0 0.00 0.00 0.00 79 1012.9
20260901005413 80 356 0.0 0.0 0.00 0.00 0.00 81 1012.6
20260901003257 80 356 0.0 0.0 0.00 0.00 0.00 80 1012.4
20260901002245 81 356 0.0 0.0 0.00 0.00 0.00 79 1012.5
20260901001259 81 356 0.0 0.0 0.00 0.00 0.00 77 1012.5
20260901000315 83 319 0.0 0.0 0.00 0.00 0.00 75 1012.5
20260831235336 84 319 0.0 0.0 0.00 0.00 0.00 72 1012.4
20260831234329 85 319 0.0 0.0 0.00 0.00 0.00 70 1012.4
20260831233329 86 319 0.0 0.0 0.00 0.00 0.00 68 1012.4
20260831232255 87 319 0.0 0.0 0.00 0.00 0.00 65 1012.4
20260831230200 92 319 0.0 0.0 0.00 0.00 0.00 60 1012.3
20260831224036 94 319 0.0 0.0 0.00 0.00 0.00 57 1012.3
20260831223044 94 319 0.0 0.0 0.00 0.00 0.00 56 1012.3
20260831222015 95 319 0.0 0.0 0.00 0.00 0.00 57 1012.3
20260831221025 94 319 0.0 0.0 0.00 0.00 0.00 57 1012.3
20260831214933 93 319 0.0 0.0 0.00 0.00 0.00 57 1012.3
20260831213908 94 319 0.0 0.0 0.00 0.00 0.00 54 1012.4
20260831212833 94 319 0.0 0.0 0.00 0.00 0.00 51 1012.6
20260831211811 95 0 0.0 3.0 0.00 0.00 0.00 47 1012.6
20260831210749 95 196 0.0 3.0 0.00 0.00 0.00 45 1012.7
20260831205814 95 84 0.0 3.0 0.00 0.00 0.00 44 1012.8
20260831204755 94 315 0.0 3.0 0.00 0.00 0.00 49 1012.8
20260831203748 94 37 0.0 0.0 0.00 0.00 0.00 56 1012.9
20260831202736 93 37 0.0 2.0 0.00 0.00 0.00 53 1012.9
20260831201746 94 357 0.0 2.0 0.00 0.00 0.00 51 1012.9
20260831200731 94 171 0.0 1.0 0.00 0.00 0.00 48 1012.9
20260831194638 96 184 0.0 3.0 0.00 0.00 0.00 46 1013.1
20260831192541 95 101 0.0 5.0 0.00 0.00 0.00 45 1013.4
20260831191600 95 176 0.0 2.0 0.00 0.00 0.00 47 1013.4
20260831185501 93 89 0.0 5.0 0.00 0.00 0.00 51 1013.9
20260831184515 93 164 1.0 5.0 0.00 0.00 0.00 50 1013.9
20260831183450 93 52 1.0 0.0 0.00 0.00 0.00 50 1013.9
20260831181328 92 95 1.0 6.0 0.00 0.00 0.00 49 1014.2
20260831180336 92 141 1.0 6.0 0.00 0.00 0.00 53 1014.2
20260831175353 91 217 1.0 6.0 0.00 0.00 0.00 50 1014.2
20260831174407 91 150 0.0 4.0 0.00 0.00 0.00 57 1014.4
20260831173346 91 195 1.0 4.0 0.00 0.00 0.00 60 1014.4
20260831172321 91 27 0.0 4.0 0.00 0.00 0.00 60 1014.4
20260831171342 90 96 0.0 2.0 0.00 0.00 0.00 64 1014.5
20260831170317 90 182 1.0 4.0 0.00 0.00 0.00 62 1014.5
20260831165321 90 264 0.0 3.0 0.00 0.00 0.00 59 1014.5
20260831164341 90 114 0.0 3.0 0.00 0.00 0.00 60 1014.5
20260831163316 90 221 0.0 1.0 0.00 0.00 0.00 66 1014.5
20260831162333 89 134 0.0 2.0 0.00 0.00 0.00 65 1014.8
20260831161308 89 153 0.0 3.0 0.00 0.00 0.00 69 1014.9
20260831160243 88 335 0.0 3.0 0.00 0.00 0.00 73 1014.9
20260831154154 87 77 0.0 4.0 0.00 0.00 0.00 72 1015.0
20260831153208 87 174 0.0 1.0 0.00 0.00 0.00 75 1015.0
20260831152215 86 87 0.0 3.0 0.00 0.00 0.00 74 1015.0
20260831151204 85 80 0.0 5.0 0.00 0.00 0.00 79 1015.0
20260831145053 84 189 0.0 4.0 0.00 0.00 0.00 77 1015.0
20260831144024 83 281 0.0 3.0 0.00 0.00 0.00 81 1015.0
20260831143037 82 42 0.0 2.0 0.00 0.00 0.00 86 1015.0
20260831142019 81 350 0.0 4.0 0.00 0.00 0.00 84 1015.0
20260831141001 79 161 1.0 4.0 0.00 0.00 0.00 88 1014.9
20260831135951 78 134 0.0 3.0 0.00 0.00 0.00 94 1014.9
20260831133828 74 209 0.0 3.0 0.00 0.00 0.00 100 1014.8
20260831132835 74 179 0.0 0.0 0.00 0.00 0.00 100 1014.7
20260831131817 73 215 0.0 3.0 0.00 0.00 0.00 100 1014.7
20260831130835 73 125 0.0 0.0 0.00 0.00 0.00 100 1014.8
20260831125840 72 148 0.0 0.0 0.00 0.00 0.00 100 1015.2
20260831124900 72 110 0.0 1.0 0.00 0.00 0.00 100 1015.2
20260831122705 70 208 0.0 0.0 0.00 0.00 0.00 99 1014.9
20260831121655 69 208 0.0 0.0 0.00 0.00 0.00 99 1014.9
20260831120646 69 208 0.0 0.0 0.00 0.00 0.00 99 1014.9
20260831115658 69 208 0.0 0.0 0.00 0.00 0.00 99 1015.0
20260831114719 69 208 0.0 0.0 0.00 0.00 0.00 99 1015.0
20260831113732 69 208 0.0 0.0 0.00 0.00 0.00 99 1014.9
20260831112700 69 208 0.0 0.0 0.00 0.00 0.00 99 1014.7
20260831111723 69 208 0.0 0.0 0.00 0.00 0.00 99 1014.7
20260831110719 69 208 0.0 0.0 0.00 0.00 0.00 99 1014.6
20260831105739 68 208 0.0 0.0 0.00 0.00 0.00 98 1014.6
20260831104724 68 208 0.0 0.0 0.00 0.00 0.00 98 1014.6
20260831103659 69 208 0.0 0.0 0.00 0.00 0.00 99 1014.2
20260831102645 68 208 0.0 0.0 0.00 0.00 0.00 99 1014.3
20260831100550 69 208 0.0 0.0 0.00 0.00 0.00 98 1014.3
20260831095608 69 208 0.0 0.0 0.00 0.00 0.00 98 1014.2
20260831094543 69 208 0.0 0.0 0.00 0.00 0.00 98 1014.2
20260831093535 69 208 0.0 0.0 0.00 0.00 0.00 98 1014.2
20260831092503 69 208 0.0 0.0 0.00 0.00 0.00 98 1014.1
20260831091454 69 208 0.0 0.0 0.00 0.00 0.00 98 1014.1
20260831090442 69 208 0.0 0.0 0.00 0.00 0.00 98 1014.1
20260831085422 69 208 0.0 0.0 0.00 0.00 0.00 98 1014.1
20260831084428 69 208 0.0 0.0 0.00 0.00 0.00 98 1014.1
20260831083448 69 208 0.0 0.0 0.00 0.00 0.00 98 1014.3
20260831082501 69 208 0.0 0.0 0.00 0.00 0.00 98 1014.3
20260831081508 69 208 0.0 0.0 0.00 0.00 0.00 98 1014.3
20260831080501 69 208 0.0 0.0 0.00 0.00 0.00 98 1014.5
20260831075519 70 208 0.0 0.0 0.00 0.00 0.00 98 1014.5
20260831074529 70 208 0.0 0.0 0.00 0.00 0.00 98 1014.5
20260831073543 70 208 0.0 0.0 0.00 0.00 0.00 98 1014.5
20260831072547 70 208 0.0 0.0 0.00 0.00 0.00 98 1014.5
20260831071552 70 208 0.0 0.0 0.00 0.00 0.00 98 1014.5
20260831070606 70 208 0.0 0.0 0.00 0.00 0.00 98 1014.6
20260831064408 70 208 0.0 0.0 0.00 0.00 0.00 98 1014.7
20260831063352 70 208 0.0 0.0 0.00 0.00 0.00 98 1014.7
20260831062342 70 208 0.0 0.0 0.00 0.00 0.00 97 1014.6
20260831061316 70 208 0.0 0.0 0.00 0.00 0.00 97 1014.6
20260831060307 70 208 0.0 0.0 0.00 0.00 0.00 97 1014.6
20260831055239 70 208 0.0 0.0 0.00 0.00 0.00 97 1014.7
20260831054247 71 208 0.0 0.0 0.00 0.00 0.00 97 1014.6
20260831053221 71 208 0.0 0.0 0.00 0.00 0.00 97 1014.6
20260831045927 71 208 0.0 0.0 0.00 0.00 0.00 97 1014.8
20260831044911 71 208 0.0 0.0 0.00 0.00 0.00 97 1014.8
20260831042727 71 208 0.0 0.0 0.00 0.00 0.00 97 1014.9
20260831041711 71 208 0.0 0.0 0.00 0.00 0.00 97 1014.9
20260831040644 71 208 0.0 0.0 0.00 0.00 0.00 96 1015.1
20260831035706 71 208 0.0 0.0 0.00 0.00 0.00 96 1015.2
20260831034653 71 208 0.0 0.0 0.00 0.00 0.00 96 1015.2
20260831033655 71 208 0.0 0.0 0.00 0.00 0.00 96 1014.9
20260831032704 72 208 0.0 0.0 0.00 0.00 0.00 96 1015.2